Location: ????????
(55.6189°N, 38.3031°E)
Time: 06:29:29
(UTC+00:00)

SL-16 R/B - Pass Details

Date: 29 February 2020
Orbit: 843 x 847 km, 71.0° (Epoch: 07 April)

Event Time Altitude Azimuth Distance (km) Brightness Sun altitude
Exits shadow 00:17:02 49° 27° (NNE) 1,081 2.9 -33.0°
Drops below altitude 10° 00:21:08 10° 34° (NNE) 2,477 5.4 -32.6°
Sets 00:23:35 0° 35° (NE) 3,415 6.4 -32.3°
